This is the latest recevied weather packets stored in our database for station/object W0WC. If no packets are shown the sender has not sent any weather packets the latest 10 day(s).
| Time | Temp. | Humidity | Pressure | Rain* | Wind** | Luminosity | Snow |
|---|---|---|---|---|---|---|---|
| 1778007944 | 11.11° C | 70% | 1009.7 hPa | 0 mm | - | 140 W/m² | - |
| 1778007640 | 11.11° C | 72% | 1009.7 hPa | 0 mm | - | 154 W/m² | - |
| 1778007337 | 11.11° C | 74% | 1009.6 hPa | 0 mm | - | 161 W/m² | - |
| 1778007033 | 10.56° C | 74% | 1009.7 hPa | 0 mm | - | 162 W/m² | - |
| 1778006730 | 11.11° C | 76% | 1009.8 hPa | 0 mm | - | 121 W/m² | - |
| 1778006427 | 10.56° C | 76% | 1009.5 hPa | 0 mm | - | 141 W/m² | - |
| 1778006124 | 11.11° C | 76% | 1009.8 hPa | 0 mm | - | 99 W/m² | - |
| 1778005821 | 11.11° C | 76% | 1009.8 hPa | 0 mm | - | 117 W/m² | - |
| 1778005518 | 11.11° C | 76% | 1009.7 hPa | 0 mm | - | 113 W/m² | - |
| 1778005214 | 11.11° C | 77% | 1009.8 hPa | 0 mm | - | 107 W/m² | - |
| 1778004911 | 11.11° C | 78% | 1009.6 hPa | 0 mm | - | 84 W/m² | - |
| 1778004608 | 11.11° C | 79% | 1009.6 hPa | 0 mm | - | 103 W/m² | - |
| 1778004304 | 11.11° C | 80% | 1009.4 hPa | 0 mm | - | 98 W/m² | - |
| 1778004001 | 11.11° C | 80% | 1009.5 hPa | 0 mm | - | 94 W/m² | - |
| 1778003697 | 11.11° C | 79% | 1009.5 hPa | 0 mm | - | 71 W/m² | - |
| 1778003394 | 11.67° C | 79% | 1009.5 hPa | 0 mm | - | 81 W/m² | - |
| 1778003091 | 11.67° C | 79% | 1009.3 hPa | 0 mm | - | 79 W/m² | - |
| 1778002787 | 11.67° C | 78% | 1009.2 hPa | 0 mm | - | 88 W/m² | - |
| 1778002484 | 11.67° C | 79% | 1009.4 hPa | 0 mm | - | 98 W/m² | - |
| 1778002181 | 11.67° C | 79% | 1009 hPa | 0 mm | - | 74 W/m² | - |
| 1778001879 | 11.67° C | 80% | 1008.9 hPa | 0 mm | - | 86 W/m² | - |
| 1778001578 | 11.67° C | 80% | 1008.9 hPa | 0 mm | - | 113 W/m² | - |
| 1778001276 | 11.67° C | 80% | 1008.7 hPa | 0 mm | - | 111 W/m² | - |
| 1778000972 | 11.67° C | 80% | 1008.9 hPa | 0 mm | - | 123 W/m² | - |
| 1778000669 | 11.67° C | 80% | 1008.9 hPa | 0 mm | - | 129 W/m² | - |
* Rain latest hour (hover to see other rain measurements)
** Current wind speed in m/s (hover to see current wind gust speed)